Gilford, NH

12:17 PM EST on February 20, 2017 (GMT -0500)
Laconia Municipal

Weather History for KLCI - October, 2011

Change the Weather History Date:

Saturday, October 8, 2011

  Actual Average Record
Temperature  
Mean Temperature 63 °F -  
Max Temperature 78 °F 64 °F 83 °F (1990)
Min Temperature 48 °F 40 °F 28 °F (1985)
Degree Days  
Heating Degree Days 2    
Growing Degree Days 13 (Base 50)    
Moisture  
Dew Point 47 °F    
Average Humidity 59    
Maximum Humidity 82    
Minimum Humidity 34    
Precipitation  
Precipitation 0.00 in - - ()
Sea Level Pressure  
Sea Level Pressure 30.36 in    
Wind  
Wind Speed 8 mph (WSW)    
Max Wind Speed 12 mph    
Max Gust Speed -    
Visibility 10 miles    
Events      
Averages and records for this station are not official NWS values.
T = Trace of Precipitation, MM = Missing Value Source: NWS Daily Summary

Daily Weather History Graph

Daily Weather History Graph

Search for Another Location

Airport or City:

Trip Planner

Search our weather history database for the weather conditions in past years. The results will help you decide how hot, cold, wet, or windy it might be!

Date:

Astronomy

Oct. 08, 2011 Rise Set
Actual Time 6:51 AM EDT 6:14 PM EDT
Civil Twilight 6:22 AM EDT 6:43 PM EDT
Nautical Twilight 5:49 AM EDT 7:16 PM EDT
Astronomical Twilight 5:15 AM EDT 7:49 PM EDT
Moon 4:27 PM EDT (10/8) 3:30 AM EDT (10/8)
Length of Visible Light 12h 21m
Length of Day
11h 23m
Waxing Gibbous, 90% of the Moon is Illuminated
Oct 8
Waxing Gibbous
Oct 11
Full
Oct 19
Last Quarter
Oct 26
New
Nov 2
First Quarter

Hourly Weather History & Observations

Time (EDT) Temp. Dew Point Humidity Pressure Visibility Wind Dir Wind Speed Gust Speed Precip Events Conditions
12:15 AM 53.6 °F 41.0 °F 62% 30.36 in 10.0 mi WSW 10.4 mph - N/A   Clear
12:35 AM 51.8 °F 41.0 °F 67% 30.36 in 10.0 mi WSW 9.2 mph - N/A   Clear
12:55 AM 51.8 °F 41.0 °F 67% 30.35 in 10.0 mi WSW 6.9 mph - N/A   Clear
1:15 AM 51.8 °F 41.0 °F 67% 30.36 in 10.0 mi WSW 5.8 mph - N/A   Clear
1:35 AM 51.8 °F 41.0 °F 67% 30.36 in 10.0 mi WSW 5.8 mph - N/A   Clear
2:15 AM 51.8 °F 41.0 °F 67% 30.35 in 10.0 mi WSW 5.8 mph - N/A   Clear
2:35 AM 51.8 °F 41.0 °F 67% 30.35 in 10.0 mi SW 8.1 mph - N/A   Clear
2:55 AM 50.0 °F 42.8 °F 76% 30.35 in 10.0 mi WSW 8.1 mph - N/A   Clear
3:35 AM 51.8 °F 42.8 °F 71% 30.35 in 10.0 mi SW 5.8 mph - N/A   Clear
3:55 AM 51.8 °F 42.8 °F 71% 30.35 in 10.0 mi WSW 6.9 mph - N/A   Clear
4:35 AM 51.8 °F 42.8 °F 71% 30.35 in 10.0 mi West 3.5 mph - N/A   Clear
4:55 AM 53.6 °F 42.8 °F 67% 30.35 in 10.0 mi WSW 4.6 mph - N/A   Clear
5:15 AM 53.6 °F 42.8 °F 67% 30.36 in 10.0 mi SW 5.8 mph - N/A   Clear
5:35 AM 51.8 °F 42.8 °F 71% 30.36 in 10.0 mi WSW 6.9 mph - N/A   Clear
5:55 AM 51.8 °F 42.8 °F 71% 30.36 in 10.0 mi WSW 5.8 mph - N/A   Clear
6:15 AM 51.8 °F 42.8 °F 71% 30.36 in 10.0 mi WSW 6.9 mph - N/A   Clear
6:35 AM 50.0 °F 42.8 °F 76% 30.37 in 10.0 mi Calm Calm - N/A   Clear
6:55 AM 48.2 °F 42.8 °F 82% 30.37 in 10.0 mi WSW 6.9 mph - N/A   Clear
7:15 AM 50.0 °F 44.6 °F 82% 30.38 in 10.0 mi WSW 4.6 mph - N/A   Clear
7:35 AM 51.8 °F 44.6 °F 76% 30.38 in 10.0 mi West 4.6 mph - N/A   Clear
7:55 AM 53.6 °F 44.6 °F 72% 30.38 in 10.0 mi WSW 9.2 mph - N/A   Clear
8:15 AM 55.4 °F 44.6 °F 67% 30.40 in 10.0 mi WSW 6.9 mph - N/A   Clear
8:35 AM 55.4 °F 46.4 °F 72% 30.40 in 10.0 mi WSW 6.9 mph - N/A   Clear
8:55 AM 57.2 °F 44.6 °F 63% 30.41 in 10.0 mi WSW 6.9 mph - N/A   Clear
9:15 AM 57.2 °F 46.4 °F 67% 30.40 in 10.0 mi WSW 9.2 mph - N/A   Clear
9:35 AM 60.8 °F 46.4 °F 59% 30.41 in 10.0 mi WSW 8.1 mph - N/A   Clear
9:55 AM 62.6 °F 48.2 °F 59% 30.41 in 10.0 mi SW 11.5 mph - N/A   Clear
10:15 AM 64.4 °F 48.2 °F 56% 30.41 in 10.0 mi SW 10.4 mph - N/A   Clear
10:35 AM 66.2 °F 50.0 °F 56% 30.40 in 10.0 mi SSW 11.5 mph - N/A   Clear
10:55 AM 68.0 °F 50.0 °F 52% 30.40 in 10.0 mi SW 11.5 mph - N/A   Clear
11:15 AM 69.8 °F 51.8 °F 53% 30.40 in 10.0 mi SW 11.5 mph - N/A   Clear
11:35 AM 71.6 °F 51.8 °F 50% 30.39 in 10.0 mi West 8.1 mph - N/A   Clear
11:55 AM 71.6 °F 51.8 °F 50% 30.39 in 10.0 mi SW 10.4 mph - N/A   Clear
12:15 PM 71.6 °F 51.8 °F 50% 30.38 in 10.0 mi WSW 8.1 mph - N/A   Clear
12:35 PM 73.4 °F 51.8 °F 47% 30.37 in 10.0 mi SW 8.1 mph - N/A   Clear
1:15 PM 75.2 °F 53.6 °F 47% 30.36 in 10.0 mi WNW 9.2 mph - N/A   Clear
1:35 PM 75.2 °F 51.8 °F 44% 30.35 in 10.0 mi West 9.2 mph - N/A   Clear
1:55 PM 77.0 °F 51.8 °F 41% 30.34 in 10.0 mi West 8.1 mph - N/A   Clear
2:15 PM 78.8 °F 50.0 °F 36% 30.34 in 10.0 mi WNW 11.5 mph - N/A   Clear
2:35 PM 78.8 °F 50.0 °F 36% 30.34 in 10.0 mi West 8.1 mph - N/A   Clear
2:55 PM 78.8 °F 48.2 °F 34% 30.33 in 10.0 mi West 8.1 mph - N/A   Clear
3:15 PM 78.8 °F 48.2 °F 34% 30.33 in 10.0 mi WSW 6.9 mph - N/A   Clear
3:35 PM 78.8 °F 50.0 °F 36% 30.33 in 10.0 mi WSW 9.2 mph - N/A   Clear
3:55 PM 78.8 °F 51.8 °F 39% 30.32 in 10.0 mi WSW 10.4 mph - N/A   Clear
4:15 PM 77.0 °F 51.8 °F 41% 30.32 in 10.0 mi WSW 9.2 mph - N/A   Clear
4:35 PM 77.0 °F 51.8 °F 41% 30.32 in 10.0 mi WSW 8.1 mph - N/A   Clear
4:55 PM 77.0 °F 50.0 °F 39% 30.32 in 10.0 mi WSW 6.9 mph - N/A   Clear
5:15 PM 75.2 °F 51.8 °F 44% 30.32 in 10.0 mi SW 9.2 mph - N/A   Clear
5:35 PM 73.4 °F 51.8 °F 47% 30.32 in 10.0 mi WSW 4.6 mph - N/A   Clear
5:55 PM 71.6 °F 53.6 °F 53% 30.32 in 10.0 mi WSW 5.8 mph - N/A   Clear
6:15 PM 66.2 °F 53.6 °F 64% 30.32 in 10.0 mi West 5.8 mph - N/A   Clear
6:35 PM 62.6 °F 53.6 °F 72% 30.32 in 10.0 mi WSW 8.1 mph - N/A   Clear
6:55 PM 64.4 °F 55.4 °F 73% 30.32 in 10.0 mi SW 5.8 mph - N/A   Clear
7:15 PM 60.8 °F 53.6 °F 77% 30.32 in 10.0 mi Calm Calm - N/A   Clear
7:35 PM 60.8 °F 53.6 °F 77% 30.32 in 10.0 mi Calm Calm - N/A   Clear
7:55 PM 59.0 °F 53.6 °F 82% 30.32 in 10.0 mi WSW 4.6 mph - N/A   Clear
8:15 PM 60.8 °F 51.8 °F 72% 30.32 in 10.0 mi West 3.5 mph - N/A   Clear
8:35 PM 59.0 °F 51.8 °F 77% 30.33 in 10.0 mi Calm Calm - N/A   Clear
8:55 PM 60.8 °F 51.8 °F 72% 30.33 in 10.0 mi WSW 6.9 mph - N/A   Clear
9:15 PM 57.2 °F 51.8 °F 82% 30.33 in 10.0 mi Calm Calm - N/A   Clear
9:35 PM 57.2 °F 51.8 °F 82% 30.33 in 10.0 mi WSW 3.5 mph - N/A   Clear
9:55 PM 57.2 °F 51.8 °F 82% 30.32 in 10.0 mi WSW 8.1 mph - N/A   Clear
10:15 PM 57.2 °F 53.6 °F 88% 30.32 in 10.0 mi WSW 4.6 mph - N/A   Clear
10:35 PM 57.2 °F 53.6 °F 88% 30.32 in 10.0 mi WSW 5.8 mph - N/A   Clear
10:55 PM 57.2 °F 53.6 °F 88% 30.32 in 10.0 mi WSW 8.1 mph - N/A   Clear
11:15 PM 55.4 °F 51.8 °F 88% 30.32 in 10.0 mi WSW 6.9 mph - N/A   Clear
11:35 PM 55.4 °F 53.6 °F 94% 30.32 in 9.0 mi West 5.8 mph - N/A   Clear
11:55 PM 55.4 °F 51.8 °F 88% 30.32 in 10.0 mi WSW 6.9 mph - N/A   Clear